Location: Biltmore Gardens
(41.6070°N, 83.4666°W)
Time: 15:09:40
(UTC+00:00)

Cosmos 1805 Rocket - Pass Details

Date: 14 July 2020
Orbit: 607 x 629 km, 82.5° (Epoch: 12 August)

Event Time Altitude Azimuth Distance (km) Brightness Sun altitude
Exits shadow 05:30:58 57° 332° (NNW) 720 4.0 -26.8°
Drops below altitude 10° 05:34:38 10° 3° (N) 1,979 7.1 -26.8°
Sets 05:36:54 0° 6° (N) 2,892 8.3 -26.8°
